Погода в Нефтчале

Погода в Нефтчале : погода сейчас, прогноз погоды и архив. Всё, что Вы хотите узнать о погоде в Нефтчале!

Поиск расширенной информации на нашем сайте:

Полезная информация: Marina APM 200 25 недорого: насосная станция для частного дома. Станция бытового водоснабжения.

Другие новости

Новости СМИ2

Главная страница сайта

Новости сайта

03.07.2017

Напоминаем, что на нашем специализированном сайте Метеоцентр.Азия вы можете получить высокодетализированные автоматические прогнозы погоды по пунктам России, СНГ и мира в авиационном формате (включающие направление и скорость ветра, видимость, явления погоды, количество и форму облачности, нижнюю и верхнюю границу облачности).

Рекомендуем: Abc автоматика ворота сервис.

Погода в Нефтчале - сегодня

Время (UTC), дата Ветер
(°,м/с) 
Видим.   Явления Облачность Т
(°С)
Тd
(°С)
f(%) Тe
(°С)
Pmin
(гПа)
dP
(гПа)
Po
(мм)
O2
(г/м3)
Тmin Tmax R s Состояние
почвы
21 20.09.17 тихо ()   10 км    ясно 
+21.1 +19.9 93 +39  1014.2  -0.3  763  280           
00 21.09.17 тихо ()   10 км    ясно 
+19.6 +19 96 +35  1013.8  -0.4  762  282           
03 21.09.17 тихо ()   20000 м    ясно 
+19 +18.2 95 +33  1014.4  0.6  763  283           
06 21.09.17 тихо ()   20000 м    3/3 600 м 
[Cu med, cong]
+27.1 +21.2 70 +48  1014.9  0.4  763  274  +18.8         
09 21.09.17 тихо ()   20000 м    ясно 
+31.2 +19 48 +47  1013.5  -1.4  762  271           
12 21.09.17 180 (Ю) 20000 м    ясно 
+30.1 +18 48 +44  1012.4  -1.1  761  272           
15 21.09.17 090 (В) 20000 м    4/0 средняя 
[Ac und]
+25.7 +21.5 78 +47  1012.5  0.1  761  275           
18 21.09.17 090 (В) 10 км    ясно 
+23.3 +19.9 81 +41  1012.8  0.3  762  278    +32       
00 22.09.17 тихо ()   10 км    ясно 
+18.9 +17.7 93 +32  1012.5  -0.7  761  283           
03 22.09.17 тихо ()   20000 м    ясно 
+19.4 +18.4 94 +34  1012.5  761  282           
09 22.09.17 140 (ЮВ) 20000 м    ясно 
+29.2 +21.2 62 +50  1011.4  -1.2  761  272           
12 22.09.17 140 (ЮВ) 20000 м    ясно 
+28.2 +21.7 68 +50  1010.4  -1  760  272           
15 22.09.17 тихо ()   20000 м    ясно 
+26 +21.8 78 +48  1010.8  0.4  760  274           
18 22.09.17 тихо ()   20000 м    ясно 
+26 +21.8 78 +48  1010.8  0.4  760  274           
21 22.09.17 тихо ()   10 км    ясно 
+23.1 +20.6 86 +43  1012  0.4  761  278           
00 23.09.17 тихо ()   10 км    ясно 
+22.6 +21.1 91 +43  1012.8  0.9  762  278           
03 23.09.17 тихо ()   20000 м    8/5 600 м средняя 
[Sc|Ac trans]
+21.9 +20.4 91 +41  1014.3  1.5  763  280           
06 23.09.17 050 (СВ) 20000 м    5/5 600 м 
[Sc]
+27.6 +21.3 69 +49  1015.6  1.2  764  274  +21.7         
09 23.09.17 050 (СВ) 10  20000 м    4/4 600 м 
[Sc]
+28.3 +21.6 67 +50  1015.5  -0.1  764  273           
12 23.09.17 050 (СВ) 20000 м    3/3 600 м 
[Cu med, cong]
+28.4 +22.4 70 +52  1014.9  -0.6  763  273           
15 23.09.17 050 (СВ) 12  20000 м    8/0 
[Sc]
+26.1 +18.7 64 +41  1015.5  0.6  764  277           
18 23.09.17 050 (СВ) 12  10 км    8/8 600 м 
[Sc]
+24.2 +18.5 71 +39  1016.7  1.3  765  279    +28.9       
21 23.09.17 050 (СВ) 10  10 км    ясно 
+23.5 +18.4 73 +38  1016.8  0.1  765  279           
00 24.09.17 050 (СВ) 10  10 км    ясно 
+22.7 +18.4 77 +37  1016.6  -0.1  765  280           
03 24.09.17 050 (СВ) 16-20{20}  20000 м    10/0 средняя 
[Ac As]
+22.7 +19 80 +38  1017.7  1.1  765  280           
Время (UTC), дата Ветер
(°,м/с) 
Видим.   Явления Облачность Т
(°С)
Тd
(°С)
f(%) Тe
(°С)
Pmin
(гПа)
dP
(гПа)
Po
(мм)
O2
(г/м3)
Тmin Tmax R s Состояние
почвы

Для получения пояснительной информации подведите курсор к названию столбца.

ПОГОДА в Нефтчале - архив

Всё, что Вы хотите узнать о погоде в Нефтчале - удобно и подробно!

Выберите нужную дату (начиная с 1 января 2015* года) и нажмите кнопку "Найти".
Будут отображены архивные сводки погоды по пункту Нефтчала, начиная с указанной даты.


Отображать данные в формате CSV (для использования в таблицах Excel)


Внимание! Наш архив погоды предназначен исключительно для личного некоммерческого использования в познавательных целях. Если Вам необходимы официальные справки о состоянии погоды (для производственных, юридических, коммерческих и т.п. целей), обращайтесь в органы Росгидромета.

*Примечание: данная дата относится к архиву по метеостанциям СССР (Россия, СНГ, Балтия).
Архив по метеостанциям Зарубежной Европы и Азии (кроме Китая) хранится 10 дней, по другим регионам земного шара (Китай, Африка, Америка, Австралия, Океания) - 1 день.

Нефтчала - район местоположения метеостанции


Название, широта, долгота, высота метеостанции:
Нефтчала 39.4°ш. 49.2°д. -24 м над ур. моря [Азербайджан]

Дополнительная информация

В oтличие oт бoльшинства пoгoдных сайтoв мы публикуем пoдрoбную метеoинфoрмацию в детальнoм прoфессиoнальнoм фoрмате.

Характеристики температуры и влажнoсти вoздуха измеряются на высoте 2 м в тени вдали oт зданий и деревьев.
Скoрoсть ветра измеряется на высoте 10 м (на урoвне рoста челoвека скoрoсть ветра ниже в 1.5-2 раза). Если метеoстанция нахoдится в гoрoде или в лесу, тo скoрoсть ветра занижена на 2-4 м/с пo сравнению с oткрытым местoм. Скoрoсть ветра над акватoриями крупных рек и oзёр, а также на вершинах хoлмoв на 2-5 м/с выше, чем в oбычных услoвиях.
Атмoсфернoе давление в разных тoчках местнoсти мoжет значительнo oтличаться oт давления на метеoстанции, в зависимoсти oт услoвий рельефа (при пoдъёме на 10 м давление пoнижается примернo на 1 мм рт.ст.).